Mojave, CA

5:13 PM PST on December 06, 2019 (GMT -0800)
Mojave

Weather History for KMHV - October, 2019

Change the Weather History Date:

Thursday, October 3, 2019

  Actual Average Record
Temperature  
Mean Temperature 64 °F -  
Max Temperature 80 °F 83 °F 100 °F (1980)
Min Temperature 48 °F 53 °F 41 °F (1971)
Degree Days  
Heating Degree Days 1    
Growing Degree Days 14 (Base 50)    
Moisture  
Dew Point 21 °F    
Average Humidity 21    
Maximum Humidity 32    
Minimum Humidity 9    
Precipitation  
Precipitation 0.00 in - - ()
Sea Level Pressure  
Sea Level Pressure 29.97 in    
Wind  
Wind Speed 9 mph (West)    
Max Wind Speed 23 mph    
Max Gust Speed 29 mph    
Visibility 10 miles    
Events      
Averages and records for this station are not official NWS values.
T = Trace of Precipitation, MM = Missing Value Source: NWS Daily Summary

Daily Weather History Graph

Daily Weather History Graph

Search for Another Location

Airport or City:

Astronomy

Oct. 03, 2019 Rise Set
Actual Time 6:48 AM PDT 6:33 PM PDT
Civil Twilight 6:23 AM PDT 6:59 PM PDT
Nautical Twilight 5:54 AM PDT 7:28 PM PDT
Astronomical Twilight 5:24 AM PDT 7:57 PM PDT
Moon 12:13 PM PDT (10/3) 10:28 PM PDT (10/3)
Length of Visible Light 12h 35m
Length of Day
11h 45m
Waxing Crescent, 31% of the Moon is Illuminated
Oct 3
Waxing Crescent
Oct 5
First Quarter
Oct 13
Full
Oct 21
Last Quarter
Oct 27
New

Hourly Weather History & Observations

Time (PDT) Temp. Dew Point Humidity Pressure Visibility Wind Dir Wind Speed Gust Speed Precip Events Conditions
12:00 AM 53.6 °F 21.2 °F 28% 30.00 in 10.0 mi NNW 8.1 mph - N/A   Mostly Cloudy
12:20 AM 53.6 °F 23.0 °F 30% 30.00 in 10.0 mi NNW 9.2 mph - N/A   Mostly Cloudy
12:40 AM 53.6 °F 21.2 °F 28% 30.00 in 10.0 mi NNW 10.4 mph - N/A   Scattered Clouds
1:00 AM 53.6 °F 21.2 °F 28% 30.00 in 10.0 mi NNW 9.2 mph - N/A   Mostly Cloudy
1:20 AM 53.6 °F 21.2 °F 28% 30.00 in 10.0 mi NNW 10.4 mph - N/A   Mostly Cloudy
1:40 AM 53.6 °F 19.4 °F 26% 30.00 in 10.0 mi NNW 10.4 mph - N/A   Mostly Cloudy
2:00 AM 53.6 °F 19.4 °F 26% 30.00 in 10.0 mi NNW 10.4 mph - N/A   Mostly Cloudy
2:20 AM 53.6 °F 19.4 °F 26% 30.00 in 10.0 mi NNW 10.4 mph - N/A   Mostly Cloudy
2:40 AM 51.8 °F 17.6 °F 26% 29.99 in 10.0 mi NNW 9.2 mph - N/A   Overcast
3:00 AM 50.0 °F 17.6 °F 28% 29.99 in 10.0 mi NNW 9.2 mph - N/A   Overcast
3:20 AM 50.0 °F 15.8 °F 26% 29.99 in 10.0 mi Calm Calm - N/A   Overcast
3:40 AM 51.8 °F 15.8 °F 24% 29.98 in 10.0 mi NW 8.1 mph - N/A   Overcast
4:00 AM 50.0 °F 14.0 °F 24% 29.98 in 10.0 mi NW 6.9 mph - N/A   Overcast
4:20 AM 50.0 °F 14.0 °F 24% 29.98 in 10.0 mi NW 9.2 mph - N/A   Overcast
4:40 AM 50.0 °F 14.0 °F 24% 29.98 in 10.0 mi NW 8.1 mph - N/A   Overcast
5:00 AM 50.0 °F 15.8 °F 26% 29.98 in 10.0 mi NW 10.4 mph - N/A   Mostly Cloudy
5:20 AM 50.0 °F 15.8 °F 26% 29.98 in 10.0 mi NW 8.1 mph - N/A   Mostly Cloudy
5:40 AM 48.2 °F 14.0 °F 25% 29.98 in 10.0 mi NW 10.4 mph - N/A   Mostly Cloudy
6:00 AM 48.2 °F 14.0 °F 25% 29.98 in 10.0 mi NW 8.1 mph - N/A   Mostly Cloudy
6:20 AM 48.2 °F 14.0 °F 25% 29.98 in 9.0 mi NW 6.9 mph - N/A   Scattered Clouds
6:40 AM 48.2 °F 14.0 °F 25% 29.99 in 9.0 mi Calm Calm - N/A   Partly Cloudy
7:00 AM 48.2 °F 14.0 °F 25% 29.99 in 9.0 mi Calm Calm - N/A   Clear
7:20 AM 48.2 °F 14.0 °F 25% 30.00 in 5.0 mi Calm Calm - N/A   Haze
7:40 AM 53.6 °F 15.8 °F 22% 30.01 in 8.0 mi Calm Calm - N/A   Clear
8:00 AM 57.2 °F 15.8 °F 20% 30.01 in 5.0 mi Calm Calm - N/A   Haze
8:20 AM 59.0 °F 15.8 °F 19% 30.01 in 10.0 mi Calm Calm - N/A   Clear
8:40 AM 59.0 °F 15.8 °F 19% 30.01 in 10.0 mi Calm Calm - N/A   Clear
9:00 AM 60.8 °F 15.8 °F 17% 30.02 in 10.0 mi South 4.6 mph - N/A   Clear
9:20 AM 62.6 °F 15.8 °F 16% 30.02 in 10.0 mi SSE 5.8 mph - N/A   Clear
9:40 AM 64.4 °F 15.8 °F 15% 30.02 in 10.0 mi Variable 4.6 mph - N/A   Clear
10:00 AM 66.2 °F 15.8 °F 14% 30.02 in 10.0 mi South 4.6 mph - N/A   Clear
10:20 AM 68.0 °F 15.8 °F 13% 30.01 in 10.0 mi Variable 3.5 mph - N/A   Clear
10:40 AM 68.0 °F 15.8 °F 13% 30.01 in 10.0 mi Calm Calm - N/A   Clear
11:00 AM 69.8 °F 14.0 °F 12% 30.01 in 10.0 mi East 3.5 mph - N/A   Clear
11:20 AM 71.6 °F 14.0 °F 11% 30.01 in 10.0 mi Calm Calm - N/A   Clear
11:40 AM 71.6 °F 15.8 °F 12% 30.00 in 10.0 mi Variable 3.5 mph - N/A   Clear
12:20 PM 75.2 °F 17.6 °F 11% 29.98 in 10.0 mi SE 5.8 mph - N/A   Clear
12:40 PM 75.2 °F 17.6 °F 11% 29.97 in 10.0 mi SW 12.7 mph - N/A   Clear
1:00 PM 78.8 °F 17.6 °F 10% 29.97 in 10.0 mi SSW 11.5 mph 17.3 mph N/A   Clear
1:20 PM 77.0 °F 21.2 °F 12% 29.95 in 10.0 mi South 8.1 mph 15.0 mph N/A   Clear
1:40 PM 78.8 °F 21.2 °F 12% 29.94 in 10.0 mi SW 9.2 mph - N/A   Clear
2:20 PM 80.6 °F 17.6 °F 10% 29.92 in 10.0 mi SW 16.1 mph - N/A   Clear
2:40 PM 80.6 °F 15.8 °F 9% 29.92 in 10.0 mi SSW 13.8 mph - N/A   Clear
3:00 PM 80.6 °F 15.8 °F 9% 29.92 in 10.0 mi SW 15.0 mph - N/A   Clear
3:20 PM 80.6 °F 26.6 °F 14% 29.92 in 10.0 mi WNW 11.5 mph 19.6 mph N/A   Clear
3:40 PM 78.8 °F 26.6 °F 15% 29.92 in 10.0 mi WNW 12.7 mph 23.0 mph N/A   Clear
4:00 PM 78.8 °F 28.4 °F 16% 29.92 in 10.0 mi NW 17.3 mph - N/A   Clear
4:20 PM 78.8 °F 28.4 °F 16% 29.92 in 10.0 mi WNW 16.1 mph 23.0 mph N/A   Clear
4:40 PM 77.0 °F 26.6 °F 16% 29.92 in 10.0 mi WNW 20.7 mph - N/A   Clear
5:00 PM 75.2 °F 26.6 °F 17% 29.93 in 10.0 mi WNW 17.3 mph 23.0 mph N/A   Clear
5:20 PM 75.2 °F 26.6 °F 17% 29.93 in 10.0 mi WNW 17.3 mph 24.2 mph N/A   Clear
5:40 PM 73.4 °F 26.6 °F 18% 29.93 in 10.0 mi WNW 16.1 mph - N/A   Clear
6:00 PM 71.6 °F 24.8 °F 17% 29.93 in 10.0 mi West 17.3 mph 25.3 mph N/A   Clear
6:20 PM 69.8 °F 26.6 °F 20% 29.93 in 10.0 mi West 19.6 mph - N/A   Clear
6:40 PM 68.0 °F 28.4 °F 23% 29.93 in 10.0 mi West 17.3 mph - N/A   Clear
7:00 PM 68.0 °F 28.4 °F 23% 29.93 in 10.0 mi WNW 20.7 mph - N/A   Clear
7:20 PM 66.2 °F 30.2 °F 26% 29.93 in 10.0 mi West 21.9 mph - N/A   Clear
7:40 PM 66.2 °F 30.2 °F 26% 29.94 in 10.0 mi West 23.0 mph 28.8 mph N/A   Clear
8:00 PM 66.2 °F 32.0 °F 28% 29.94 in 10.0 mi West 21.9 mph 28.8 mph N/A   Clear
8:20 PM 64.4 °F 30.2 °F 28% 29.95 in 10.0 mi West 19.6 mph 26.5 mph N/A   Clear
8:40 PM 64.4 °F 32.0 °F 30% 29.96 in 10.0 mi WSW 13.8 mph 23.0 mph N/A   Clear
9:00 PM 64.4 °F 32.0 °F 30% 29.96 in 10.0 mi SW 13.8 mph 19.6 mph N/A   Clear
9:20 PM 62.6 °F 32.0 °F 32% 29.96 in 10.0 mi SW 11.5 mph - N/A   Clear
9:40 PM 62.6 °F 32.0 °F 32% 29.96 in 10.0 mi WSW 13.8 mph - N/A   Clear
10:00 PM 62.6 °F 32.0 °F 32% 29.97 in 10.0 mi SW 11.5 mph - N/A   Clear
10:20 PM 62.6 °F 30.2 °F 30% 29.97 in 10.0 mi SW 11.5 mph - N/A   Clear
10:40 PM 64.4 °F 26.6 °F 24% 29.97 in 10.0 mi West 17.3 mph - N/A   Clear
11:00 PM 64.4 °F 26.6 °F 24% 29.98 in 10.0 mi West 13.8 mph - N/A   Clear
11:20 PM 64.4 °F 26.6 °F 24% 29.98 in 10.0 mi WSW 10.4 mph 18.4 mph N/A   Partly Cloudy
11:40 PM 62.6 °F 26.6 °F 26% 29.98 in 10.0 mi WSW 10.4 mph - N/A   Clear